Погода в Чернухе

Россия / Нижегородская область     55°36′02″N   43°46′29″E
темп.,
°C
ветер,
м/с
пор.,
м/с
влажн.,
%
обл.,
%
осадки,
мм/ч
давл.,
гПа
погр.,
м
15 апреля, чт
чт1500:00+10ююв23735 0.0 102042
03:00+9ююв227699 0.0 102016
06:00+8ююв22766 0.0 101933
09:00+14ююв24565 0.0 1019323
12:00+18ююв2241100 0.0 1018976
15:00+20ююв1135100 0.0 10171909
18:00+17всв225130 0.0 101734
21:00+12всв356549 0.0 101971
16 апреля, пт
пт1600:00+10св498072 0.0 1019181
03:00+8св5119648 0.0 1021326
06:00+7св51192100 0.0 1021390
09:00+10всв587994 0.0 1022560
12:00+13всв686967 0.0 1022779
15:00+12всв687063 0.0 1023832
18:00+10всв6974100 0.0 1023822
21:00+8всв4128379 0.0 1024505
17 апреля, сб
сб1700:00+7всв5138286 0.0 1024463
03:00+5всв4127822 0.0 1025357
06:00+4всв512755 0.0 1026380
09:00+8всв610635 0.0 1026607
12:00+12всв69525 0.0 10251063
15:00+13всв68384 0.0 10251287
18:00+11всв59450 0.0 1025598
21:00+7св412590 0.0 1026317
18 апреля, вс
вс1800:00+5св411670 0.0 1026296
03:00+3св310750 0.0 1027232
06:00+3св39770 0.0 1028247
09:00+8св47540 0.0 1028815
12:00+12св57421 0.0 10271459
15:00+13св57405 0.0 10271797
18:00+11св485056 0.0 1028493
21:00+6всв511705 0.0 1031607
19 апреля, пн
пн1900:00+4всв39765 0.0 1032373
03:00+2всв397154 0.0 1034278
06:00+1всв3865100 0.0 1036320
09:00+5в5746100 0.0 1036979
12:00+7в5636100 0.0 10361486
15:00+8вюв4533100 0.0 10361562
18:00+6в364294 0.0 1035572
21:00+2в37614 0.0 1036143